Victorville, CA

10:16 PM PST on December 08, 2016 (GMT -0800)
Southern California Logistics

Weather History for KVCV - March, 2014

Change the Weather History Date:

Tuesday, March 11, 2014

  Actual Average (KSBD) Record (KSBD)
Temperature  
Mean Temperature 54 °F -  
Max Temperature 66 °F 68 °F 78 °F (2015)
Min Temperature 42 °F 44 °F 39 °F (2012)
Degree Days  
Heating Degree Days 11    
Growing Degree Days 4 (Base 50)    
Moisture  
Dew Point 26 °F    
Average Humidity 40    
Maximum Humidity 81    
Minimum Humidity 15    
Precipitation  
Precipitation 0.00 in - - ()
Sea Level Pressure  
Sea Level Pressure 30.09 in    
Wind  
Wind Speed 10 mph (NNE)    
Max Wind Speed 16 mph    
Max Gust Speed 22 mph    
Visibility 10 miles    
Events      
Averages and records for this station are not official NWS values.
T = Trace of Precipitation, MM = Missing Value Source: NWS Daily Summary

Daily Weather History Graph

Daily Weather History Graph

Search for Another Location

Airport or City:

Trip Planner

Search our weather history database for the weather conditions in past years. The results will help you decide how hot, cold, wet, or windy it might be!

Date:

Astronomy

Mar. 11, 2014 Rise Set
Actual Time 7:05 AM PDT 6:54 PM PDT
Civil Twilight 6:40 AM PDT 7:19 PM PDT
Nautical Twilight 6:11 AM PDT 7:48 PM PDT
Astronomical Twilight 5:41 AM PDT 8:17 PM PDT
Moon 2:43 PM PDT (3/11) 3:53 AM PDT (3/11)
Length of Visible Light 12h 38m
Length of Day
11h 48m
Waxing Gibbous, 79% of the Moon is Illuminated
Mar 11
Waxing Gibbous
Mar 16
Full
Mar 23
Last Quarter
Mar 30
New
Apr 7
First Quarter

Hourly Weather History & Observations

Time (PDT) Temp. Windchill Dew Point Humidity Pressure Visibility Wind Dir Wind Speed Gust Speed Precip Events Conditions
12:15 AM 55.4 °F - 37.4 °F 51% 30.05 in 10.0 mi West 13.8 mph 19.6 mph N/A   Clear
12:35 AM 53.6 °F - 39.2 °F 58% 30.06 in 10.0 mi West 15.0 mph - N/A   Clear
12:55 AM 53.6 °F - 39.2 °F 58% 30.06 in 10.0 mi West 15.0 mph 20.7 mph N/A   Clear
1:15 AM 53.6 °F - 41.0 °F 62% 30.06 in 10.0 mi West 12.7 mph - N/A   Clear
1:35 AM 53.6 °F - 42.8 °F 67% 30.06 in 10.0 mi West 13.8 mph - N/A   Clear
1:55 AM 51.8 °F - 42.8 °F 71% 30.06 in 10.0 mi West 16.1 mph 21.9 mph N/A   Clear
2:15 AM 51.8 °F - 41.0 °F 67% 30.06 in 10.0 mi West 11.5 mph - N/A   Clear
2:35 AM 51.8 °F - 41.0 °F 67% 30.06 in 10.0 mi West 10.4 mph - N/A   Clear
2:55 AM 51.8 °F - 39.2 °F 62% 30.06 in 10.0 mi West 12.7 mph 16.1 mph N/A   Clear
3:15 AM 50.0 °F - 41.0 °F 71% 30.06 in 10.0 mi West 13.8 mph - N/A   Clear
3:35 AM 50.0 °F - 41.0 °F 71% 30.05 in 10.0 mi West 10.4 mph - N/A   Clear
3:55 AM 50.0 °F - 41.0 °F 71% 30.05 in 10.0 mi West 10.4 mph - N/A   Unknown
4:15 AM 48.2 °F - 39.2 °F 71% 30.05 in 10.0 mi West 10.4 mph - N/A   Unknown
4:35 AM 48.2 °F - 39.2 °F 71% 30.05 in 10.0 mi WSW 8.1 mph - N/A   Unknown
4:55 AM 48.2 °F - 39.2 °F 71% 30.06 in 10.0 mi Calm Calm - N/A   Unknown
5:15 AM 48.2 °F - 39.2 °F 71% 30.06 in 10.0 mi Calm Calm - N/A   Unknown
5:30 AM 46.4 °F 45.2 °F 39.2 °F 76% 30.06 in 10.0 mi South 3.5 mph - N/A   Unknown
5:55 AM 46.4 °F 44.3 °F 39.2 °F 76% 30.08 in 10.0 mi South 4.6 mph - N/A   Unknown
6:15 AM 44.6 °F 42.2 °F 37.4 °F 76% 30.08 in 10.0 mi South 4.6 mph - N/A   Unknown
6:35 AM 44.6 °F 43.1 °F 37.4 °F 76% 30.09 in 10.0 mi South 3.5 mph - N/A   Unknown
6:55 AM 44.6 °F 41.4 °F 37.4 °F 76% 30.09 in 10.0 mi SSE 5.8 mph - N/A   Unknown
7:15 AM 42.8 °F 40.1 °F 37.4 °F 81% 30.10 in 7.0 mi South 4.6 mph - N/A   Unknown
7:35 AM 42.8 °F 40.1 °F 37.4 °F 81% 30.10 in 10.0 mi South 4.6 mph - N/A   Unknown
7:55 AM 44.6 °F 43.1 °F 37.4 °F 76% 30.11 in 10.0 mi SSW 3.5 mph - N/A   Unknown
8:15 AM 46.4 °F - 37.4 °F 71% 30.11 in 5.0 mi Calm Calm - N/A   Haze
8:35 AM 48.2 °F - 37.4 °F 66% 30.12 in 10.0 mi Calm Calm - N/A   Unknown
8:55 AM 48.2 °F - 37.4 °F 66% 30.12 in 10.0 mi Calm Calm - N/A   Unknown
9:15 AM 51.8 °F - 39.2 °F 62% 30.12 in 10.0 mi Calm Calm - N/A   Unknown
9:35 AM 51.8 °F - 39.2 °F 62% 30.13 in 10.0 mi Calm Calm - N/A   Unknown
9:55 AM 53.6 °F - 39.2 °F 58% 30.13 in 10.0 mi NNW 4.6 mph - N/A   Clear
10:10 AM 57.2 °F - 33.8 °F 41% 30.14 in 10.0 mi NNE 9.2 mph - N/A   Clear
10:35 AM 59.0 °F - 28.4 °F 31% 30.13 in 10.0 mi NNE 10.4 mph 16.1 mph N/A   Scattered Clouds
10:55 AM 60.8 °F - 24.8 °F 25% 30.13 in 10.0 mi NE 12.7 mph 18.4 mph N/A   Scattered Clouds
11:15 AM 62.6 °F - 21.2 °F 20% 30.12 in 10.0 mi NE 12.7 mph 19.6 mph N/A   Scattered Clouds
11:35 AM 62.6 °F - 19.4 °F 19% 30.12 in 10.0 mi NE 12.7 mph 19.6 mph N/A   Scattered Clouds
11:55 AM 62.6 °F - 19.4 °F 19% 30.12 in 10.0 mi NNE 12.7 mph 19.6 mph N/A   Scattered Clouds
12:15 PM 64.4 °F - 19.4 °F 18% 30.11 in 10.0 mi ENE 12.7 mph 19.6 mph N/A   Scattered Clouds
12:35 PM 62.6 °F - 17.6 °F 18% 30.11 in 10.0 mi NE 13.8 mph 18.4 mph N/A   Scattered Clouds
12:55 PM 64.4 °F - 17.6 °F 16% 30.10 in 10.0 mi NE 12.7 mph 20.7 mph N/A   Scattered Clouds
1:15 PM 64.4 °F - 17.6 °F 16% 30.09 in 10.0 mi NE 13.8 mph 18.4 mph N/A   Scattered Clouds
1:35 PM 64.4 °F - 17.6 °F 16% 30.09 in 10.0 mi NE 11.5 mph 19.6 mph N/A   Scattered Clouds
1:55 PM 64.4 °F - 17.6 °F 16% 30.08 in 10.0 mi NE 10.4 mph 19.6 mph N/A   Scattered Clouds
2:15 PM 64.4 °F - 17.6 °F 16% 30.08 in 10.0 mi NE 12.7 mph 20.7 mph N/A   Scattered Clouds
2:35 PM 64.4 °F - 17.6 °F 16% 30.08 in 10.0 mi NE 13.8 mph 21.9 mph N/A   Scattered Clouds
2:55 PM 66.2 °F - 17.6 °F 15% 30.07 in 10.0 mi NNE 12.7 mph 18.4 mph N/A   Scattered Clouds
3:15 PM 64.4 °F - 17.6 °F 16% 30.07 in 10.0 mi NE 11.5 mph 18.4 mph N/A   Scattered Clouds
3:35 PM 64.4 °F - 17.6 °F 16% 30.07 in 10.0 mi ENE 8.1 mph 16.1 mph N/A   Scattered Clouds
3:55 PM 64.4 °F - 15.8 °F 15% 30.06 in 10.0 mi NE 12.7 mph - N/A   Scattered Clouds
4:15 PM 64.4 °F - 15.8 °F 15% 30.06 in 10.0 mi NE 12.7 mph 20.7 mph N/A   Scattered Clouds
4:35 PM 62.6 °F - 15.8 °F 16% 30.07 in 10.0 mi NE 10.4 mph 18.4 mph N/A   Scattered Clouds
4:55 PM 64.4 °F - 15.8 °F 15% 30.06 in 10.0 mi NE 13.8 mph 18.4 mph N/A   Scattered Clouds
5:15 PM 62.6 °F - 15.8 °F 16% 30.06 in 10.0 mi NE 13.8 mph - N/A   Scattered Clouds
5:35 PM 62.6 °F - 15.8 °F 16% 30.06 in 10.0 mi ENE 11.5 mph - N/A   Scattered Clouds
5:55 PM 62.6 °F - 14.0 °F 15% 30.07 in 10.0 mi NNE 15.0 mph 18.4 mph N/A   Scattered Clouds
6:15 PM 60.8 °F - 14.0 °F 16% 30.07 in 10.0 mi NE 11.5 mph - N/A   Scattered Clouds
6:35 PM 60.8 °F - 14.0 °F 16% 30.08 in 10.0 mi ENE 10.4 mph - N/A   Clear
6:55 PM 60.8 °F - 12.2 °F 15% 30.08 in 10.0 mi NE 11.5 mph - N/A   Clear
7:15 PM 59.0 °F - 12.2 °F 16% 30.08 in 10.0 mi NE 12.7 mph - N/A   Clear
7:35 PM 57.2 °F - 12.2 °F 17% 30.09 in 10.0 mi NE 9.2 mph - N/A   Clear
7:55 PM 55.4 °F - 12.2 °F 18% 30.09 in 10.0 mi NNE 8.1 mph - N/A   Clear
8:15 PM 53.6 °F - 14.0 °F 21% 30.09 in 10.0 mi NNE 6.9 mph - N/A   Clear
8:35 PM 53.6 °F - 14.0 °F 21% 30.10 in 10.0 mi NNE 6.9 mph - N/A   Clear
8:55 PM 51.8 °F - 14.0 °F 22% 30.10 in 10.0 mi NE 6.9 mph - N/A   Clear
9:15 PM 51.8 °F - 14.0 °F 22% 30.10 in 10.0 mi NNE 6.9 mph - N/A   Clear
9:35 PM 51.8 °F - 12.2 °F 21% 30.10 in 10.0 mi NE 6.9 mph - N/A   Unknown
9:55 PM 51.8 °F - 12.2 °F 21% 30.11 in 10.0 mi North 4.6 mph - N/A   Unknown
10:15 PM 48.2 °F - 12.2 °F 24% 30.11 in 10.0 mi North 5.8 mph - N/A   Unknown
10:35 PM 48.2 °F - 12.2 °F 24% 30.12 in 10.0 mi NNE 5.8 mph - N/A   Unknown
10:55 PM 48.2 °F - 12.2 °F 24% 30.12 in 10.0 mi North 3.5 mph - N/A   Unknown
11:15 PM 44.6 °F - 12.2 °F 27% 30.13 in 10.0 mi Calm Calm - N/A   Unknown
11:35 PM 44.6 °F - 12.2 °F 27% 30.12 in 10.0 mi Calm Calm - N/A   Unknown
11:55 PM 42.8 °F 41.1 °F 14.0 °F 31% 30.12 in 10.0 mi West 3.5 mph - N/A   Unknown